Wind_Speed
7 8 8 8 9 10 11 11 12 12 13 14 14 14 14 13 10 11 9 12 13 19 17 15 15 15 15 15 15 17 16 15 13
7 8 9 10 10 11 12 12 13 13 13 13 14 14 13 12 8 9 9 10 13 13 15 16 17 17 18 18 18 17 19 18 16
8 9 10 11 12 12 13 14 14 14 14 14 13 13 12 9 8 9 8 13 11 10 10 11 15 18 18 20 20 20 18 17 17
9 10 11 12 12 12 13 14 15 14 14 15 15 14 12 11 10 8 6 12 11 9 8 10 12 11 11 13 17 19 18 16 16
10 11 12 12 13 14 15 15 15 15 14 15 15 13 13 10 8 7 11 10 9 9 8 8 10 9 8 10 11 14 16 15 13
11 11 12 13 14 15 16 15 14 14 16 15 14 15 11 9 9 8 11 8 7 7 7 7 9 11 11 11 11 11 11 11 13
10 12 13 13 15 15 15 15 17 16 11 10 13 10 9 8 8 10 11 10 9 9 8 8 9 9 10 12 13 13 13 14 15
12 12 14 15 16 14 15 14 15 14 13 11 9 9 8 7 7 13 12 11 9 10 10 10 9 7 8 11 13 13 12 12 12
10 11 13 14 14 15 15 14 13 13 12 10 8 8 8 8 7 11 13 11 10 13 13 9 7 7 9 9 9 9 8 8 8
9 11 12 13 14 14 14 14 13 12 11 10 8 8 8 8 8 9 13 13 10 8 8 11 12 10 9 8 7 6 7 9 12
9 11 12 13 14 14 13 13 12 11 9 8 8 8 8 8 8 7 11 13 12 11 11 13 16 15 13 12 8 6 8 11 12
9 11 13 14 13 13 12 12 10 9 8 7 7 6 6 7 8 7 7 9 11 7 5 7 7 9 11 11 9 10 12 13 13
9 11 13 14 13 12 11 11 10 10 7 5 5 5 6 6 6 7 7 6 6 9 6 4 3 4 5 7 9 12 13 12 12
9 11 13 13 12 11 11 10 11 11 9 6 5 4 4 5 5 6 6 6 5 5 8 8 6 8 9 10 11 12 13 13 12
9 11 13 12 10 9 10 10 10 10 11 6 5 5 4 4 5 5 5 6 5 4 4 6 12 12 10 12 10 11 12 13 15
9 11 11 10 9 9 9 10 9 10 11 8 5 8 9 6 7 5 4 6 7 6 3 4 2 8 13 13 10 11 13 16 16
9 10 9 8 8 8 8 9 9 8 11 9 6 3 4 5 12 5 5 7 8 7 7 7 8 9 10 12 12 13 16 20 18
9 10 8 8 7 7 8 8 8 7 8 10 6 4 4 10 8 6 5 7 8 7 7 8 8 6 7 10 14 16 19 22 20
10 9 8 8 8 7 7 7 7 7 5 6 6 6 4 4 5 7 9 11 10 9 8 8 9 5 7 13 17 18 22 21 19
10 9 9 8 7 7 7 7 6 6 6 5 5 4 5 3 5 8 11 10 11 9 11 11 11 7 9 14 17 20 22 21 17
Wind_Direction
353 350 347 346 342 337 332 332 332 327 321 317 314 313 312 307 302 309 306 297 272 273 276 278 278 280 276 279 279 277 280 281 277
359 355 353 352 353 349 344 343 341 336 332 327 327 324 323 318 317 310 296 294 290 286 279 278 281 280 277 277 282 287 283 275 274
7 7 5 359 359 355 350 350 347 345 343 343 344 343 342 340 340 311 337 298 302 301 298 308 293 286 286 281 280 287 293 282 277
11 11 9 4 2 0 359 360 356 354 356 357 357 357 360 14 345 4 314 296 302 303 316 317 320 308 298 288 287 285 291 294 286
18 13 13 13 8 8 8 7 3 3 4 8 6 7 22 12 2 2 329 328 320 311 301 320 304 303 309 312 307 298 292 291 291
21 20 17 17 14 13 12 12 11 7 11 12 12 25 12 8 8 328 348 352 341 339 320 304 307 305 306 306 307 309 308 295 288
21 26 21 19 16 20 14 16 18 18 12 359 9 11 8 14 17 346 3 6 5 354 336 310 296 310 321 311 309 307 302 298 296
23 18 19 19 17 16 16 15 9 14 12 9 13 15 16 26 22 357 11 14 14 18 12 6 354 334 319 319 325 324 322 319 314
23 19 18 18 17 14 15 17 10 14 14 12 21 25 28 34 39 353 16 21 29 38 27 18 6 347 343 352 9 8 12 16 7
20 20 17 17 15 13 14 14 14 13 20 16 34 38 41 36 37 355 14 25 32 63 39 36 32 31 24 16 8 19 26 18 358
19 18 15 13 12 12 13 12 13 11 22 29 40 41 39 41 39 42 359 25 36 60 69 65 60 57 58 53 40 16 5 5 3
11 12 11 6 6 9 11 13 16 13 26 18 31 37 44 37 29 39 42 17 20 40 59 77 75 70 52 41 12 357 339 348 339
2 5 1 359 2 6 10 8 16 14 18 13 19 23 18 33 29 27 30 45 41 358 24 13 341 331 315 12 1 18 5 7 357
354 355 352 356 360 3 7 6 10 10 6 6 356 5 5 13 15 18 13 16 42 21 4 3 357 347 342 346 11 11 12 7 1
341 345 348 353 358 354 359 3 9 5 2 348 336 324 339 354 351 351 357 1 14 12 29 16 355 351 347 339 343 356 356 5 3
329 338 343 345 347 349 356 2 4 1 8 12 329 318 336 336 340 349 358 352 349 342 354 347 329 337 350 9 7 360 355 351 349
319 328 330 334 340 337 344 354 8 0 2 9 7 353 286 4 317 353 4 356 353 345 336 310 320 326 333 339 345 342 342 344 344
307 316 318 323 325 326 333 342 354 1 1 1 25 348 343 337 322 342 351 341 345 334 335 323 303 327 323 323 329 334 340 342 343
299 302 304 311 317 318 320 326 334 344 350 12 349 354 325 344 339 352 345 358 325 342 341 315 297 305 309 321 325 333 339 341 342
289 290 297 301 301 301 305 311 318 318 328 322 321 332 324 316 302 311 323 333 335 328 325 301 316 314 306 311 320 331 338 339 342
Height
1547 1546 1545 1544 1543 1542 1541 1540 1539 1538 1536 1534 1533 1531 1530 1530 1530 1530 1531 1530 1529 1527 1528 1527 1527 1527 1527 1526 1526 1525 1525 1525 1524
1547 1546 1545 1544 1543 1541 1540 1539 1537 1536 1534 1533 1531 1530 1528 1528 1528 1528 1528 1527 1525 1525 1525 1525 1524 1524 1524 1524 1524 1523 1523 1523 1522
1547 1546 1544 1544 1542 1540 1539 1537 1535 1533 1532 1531 1529 1528 1527 1526 1527 1526 1526 1524 1523 1523 1523 1523 1522 1521 1521 1521 1521 1520 1520 1520 1520
1547 1546 1544 1543 1542 1540 1538 1536 1534 1533 1531 1530 1528 1527 1525 1524 1525 1525 1525 1522 1522 1521 1522 1521 1521 1520 1519 1519 1518 1518 1518 1518 1518
1547 1546 1545 1543 1541 1539 1537 1536 1534 1532 1531 1529 1528 1526 1525 1527 1526 1525 1523 1521 1520 1520 1520 1520 1519 1519 1518 1517 1517 1516 1516 1516 1516
1548 1546 1545 1543 1541 1539 1538 1536 1534 1532 1530 1529 1528 1527 1528 1528 1526 1524 1522 1521 1519 1519 1518 1518 1518 1518 1517 1516 1515 1515 1515 1514 1514
1548 1546 1545 1543 1541 1539 1538 1536 1534 1532 1532 1531 1530 1529 1530 1529 1527 1524 1522 1521 1519 1518 1518 1517 1517 1516 1516 1515 1514 1514 1513 1512 1512
1548 1546 1545 1543 1542 1540 1538 1537 1535 1534 1532 1531 1531 1530 1529 1529 1528 1525 1523 1521 1519 1519 1518 1517 1516 1516 1515 1514 1513 1512 1511 1511 1510
1549 1547 1546 1544 1543 1541 1539 1538 1536 1535 1533 1532 1531 1531 1530 1529 1529 1526 1524 1522 1520 1520 1520 1519 1517 1516 1515 1514 1512 1512 1511 1510 1509
1549 1548 1547 1545 1543 1542 1540 1538 1537 1535 1534 1533 1531 1531 1530 1530 1529 1527 1525 1523 1521 1520 1520 1518 1517 1516 1516 1515 1514 1513 1512 1511 1509
1549 1548 1547 1545 1543 1542 1540 1539 1537 1536 1535 1534 1532 1532 1531 1530 1530 1529 1526 1524 1523 1522 1522 1520 1519 1518 1517 1516 1515 1514 1512 1511 1510
1548 1548 1546 1545 1543 1542 1540 1539 1538 1536 1535 1534 1533 1532 1532 1531 1530 1529 1528 1526 1525 1523 1522 1521 1521 1519 1519 1517 1516 1515 1512 1510 1509
1548 1547 1546 1544 1543 1542 1540 1539 1537 1536 1535 1534 1533 1532 1531 1531 1531 1529 1528 1527 1527 1524 1523 1522 1521 1520 1519 1519 1517 1515 1512 1510 1508
1547 1546 1545 1544 1542 1541 1540 1539 1537 1535 1534 1534 1533 1532 1531 1531 1530 1529 1528 1527 1527 1526 1523 1522 1521 1519 1518 1518 1517 1514 1512 1510 1508
1546 1545 1544 1543 1542 1541 1540 1538 1537 1535 1534 1534 1533 1532 1531 1530 1529 1529 1528 1527 1526 1526 1525 1524 1521 1520 1518 1517 1516 1514 1512 1510 1508
1544 1544 1543 1542 1541 1540 1539 1538 1537 1536 1534 1533 1534 1531 1530 1530 1529 1528 1528 1527 1526 1525 1525 1524 1523 1521 1518 1517 1516 1514 1512 1509 1507
1543 1542 1542 1541 1540 1539 1539 1538 1537 1536 1534 1533 1533 1533 1533 1531 1529 1528 1528 1527 1526 1525 1525 1524 1522 1521 1519 1517 1516 1514 1512 1509 1506
1541 1540 1540 1539 1539 1538 1538 1537 1536 1536 1536 1534 1535 1534 1534 1532 1529 1529 1528 1527 1526 1524 1524 1524 1522 1520 1519 1517 1515 1513 1511 1508 1505
1538 1538 1538 1538 1537 1537 1536 1535 1535 1535 1535 1535 1535 1535 1534 1534 1533 1531 1529 1528 1526 1523 1522 1523 1521 1519 1518 1517 1514 1513 1510 1507 1505
1536 1536 1536 1535 1535 1534 1534 1534 1534 1534 1534 1533 1533 1533 1533 1533 1533 1531 1529 1528 1527 1524 1521 1520 1518 1518 1518 1517 1515 1512 1509 1506 1504